Starlink 31239

operational
NORAD ID: 60093 Int'l Des: 2024-117 Owner: SPXS Country: US Constellation: starlink
LEOCIRCULAR

Starlink 31239について

説明を読み込み中...

リアルタイム位置

3D地球を読み込み中...

次回通過

高度履歴

Altitude vs Time

uPlot chart will show altitude changes over time

軌道要素

1 60093U 24117C 25304.17725085 -.00000010 00000-0 11784-4 0 9999
2 60093 53.1612 278.9758 0001307 91.8502 268.2649 15.30193092 77059
Epoch: Oct 31, 2025 • Age: 14 hours

現在のステータス

高度 487.8 km
速度 7.62 km/s
衛星直下点 -36.92°S, 176.7°W
打ち上げ日 Jun 23, 2024
運用期間 1.3 years
タイプ internet

技術仕様

分類 Payload
質量 730.00 kg
乾燥質量 700.00 kg
総質量 730.00 kg
長さ 0.30 m
直径 4.10 m
スパン 29.00 m
形状 Box + pan
製造者 SPXS
バスタイプ Starlink V2M
フェーズステータス In Orbit
所有者/国 SPXS/US

大規模コンステレーション

Loading constellations...